Location: Caltech
(34.1382°N, 118.1253°W)
Time: 16:26:05
(UTC-07:00)

Cosmos 2237 Rocket - Visible Passes

Search period start: 01 September 2014 00:00
Search period end: 11 September 2014 00:00
Orbit: 834 x 852 km, 71.0° (Epoch: 31 August)

Date Brightness Start Highest point End Pass type
(mag) Time Alt. Az. Time Alt. Az. Time Alt. Az.
01 Sep 5.2 04:34:19 10° ESE 04:35:23 11° E 04:36:27 10° E visible
02 Sep 2.2 05:58:12 10° SSW 06:03:52 83° WNW 06:09:36 10° NNE visible
03 Sep 2.2 05:43:27 10° SSW 05:49:08 87° WNW 05:54:51 10° NNE visible
04 Sep 2.2 05:28:43 10° SSW 05:34:23 89° ESE 05:40:06 10° NNE visible
05 Sep 2.2 05:13:58 10° SSW 05:19:38 85° ESE 05:25:21 10° NNE visible
06 Sep 2.3 05:00:03 15° SSW 05:04:54 80° ESE 05:10:36 10° NNE visible
07 Sep 2.3 04:46:37 24° S 04:50:09 76° ESE 04:55:51 10° NNE visible
08 Sep 2.3 04:33:05 37° S 04:35:25 73° ESE 04:41:06 10° NNE visible
09 Sep 2.4 04:19:26 53° SSE 04:20:40 69° ESE 04:26:20 10° NNE visible
09 Sep 3.9 06:02:01 10° W 06:05:15 15° NW 06:08:30 10° NNW visible
10 Sep 2.4 04:05:43 65° ESE 04:05:56 65° ESE 04:11:34 10° NNE visible
10 Sep 3.9 05:47:35 12° W 05:50:28 16° NW 05:53:54 10° NNW visible
